World > North America > United States > New York > Cherrytown

Cherrytown, NY Hourly Weather Conditions

Feedback E-mail the Weather

Quick WX

Cherrytown, NY Weather Maps

°F °C°F °C
Cherrytown Weather Map
UTC Time: 2/8/2023, 01:03
Your Time:

Cherrytown, NY Regional Weather

Expires:202302080100;;977676
ASUS41 KALY 080010
RWRALY

NEW YORK STATE HOURLY WEATHER ROUNDUP
NATIONAL WEATHER SERVICE ALBANY NY
700 PM EST TUE FEB 07 2023

NOTE: "FAIR" INDICATES FEW OR NO CLOUDS BELOW 12,000 FEET WITH NO
SIGNIFICANT WEATHER AND/OR NO OBSTRUCTIONS TO VISIBILITY.


NYZ032-033-038>043-046>054-057>066-NYZ062>081-082-084-080100-
EAST

  
CITY           SKY/WX    TMP DP  RH WIND       PRES   REMARKS
ALBANY         LGTSLEET  36  25  64 S14G22    30.10R WCI  27          
GLENS FALLS    LGT RAIN  34  25  69 SW8       30.07R WCI  27          
POUGHKEEPSIE   CLOUDY    36  24  62 SE5       30.16S WCI  32          
NEWBURGH       CLOUDY    37  23  56 S9        30.14  WCI  31          
MONTGOMERY     CLOUDY    35  23  61 CALM      30.14R                  
WHITE PLAINS   CLOUDY    35  28  75 SE8       30.15F WCI  29          
ISLIP          CLOUDY    40  34  79 S9        30.18F WCI  34          
NEW YORK CITY  CLOUDY    41  30  65 S9        30.19S                  
CENTRAL PARK   CLOUDY    41  31  67 S7        30.19F                  
$$


SKY/WX - Weather  TMP - Temperature  DP - Dew Point  RH - Humidity
WIND - Wind Direction/Speed PRES - Barometric Pressure VSB - Visibility
WCI - Wind Chill Index E13G22 Wind - East Wind 13 mph/Gusts of 22 mph

Trending Headlines

Trending Entertainment Headlines

Cherrytown Radar Loop

Use the map search tool if you want to place a location marker on the radar map...

Cherrytown Quick Facts

National Two Day Weather Forecast


E-mail the Cherrytown Weather Forecast

Voice your opinion or tell us about page issues...